Погода в Лиде

Погода в Лиде : погода сейчас, прогноз погоды и архив. Всё, что Вы хотите узнать о погоде в Лиде!

Хотите узнать прогноз погоды в Лиде? Тогда Вам сюда: Погода в Лиде

Поиск расширенной информации на нашем сайте:

Другие новости

Новости СМИ2

Главная страница сайта

Новости сайта

02.10.2013

Напоминаем, что на нашем новом сайте вы можете получить высокодетализированные прогнозы погоды по пунктам России, СНГ и мира (включающие важные для авиации метеовеличины, такие как направление и скорость ветра, видимость, явления погоды, количество и форма облачности, нижняя и верхняя граница облачности), а также ознакомиться с разнообразными материалами по авиационной метеорологии и подборкой полезных ссылок на эту тему.

Сайт Метеоцентр.Азия посвящён разработке технологий оптимизации авиаметеорологического обслуживания, включая проектирование и перспективное создание нескольких автоматизированных авиаметеорологических систем:
- система выпуска высокодетальных прогностических карт явлений погоды для нижнего воздушного пространства по России и ближнему зарубежью;
- система верификации прогнозов TAF (выпускаемых синоптиками официальных АМСГ РФ и ближнего зарубежья) и AUTOTAF (выпускаемых сайтом Метеоцентр.Азия) - выявление ошибок, онлайн-сопоставление с фактической погодой METAR, автоматическое внесение коррективов в прогнозы при резком отклонении фактической погоды от прогноза, подсчёт оправдываемости прогнозов по элементам и в целом;
- система обработки, анализа и отображения авиаметеорологической информации для применения провайдерами метеорологической информации.

Рекомендуем: купить автоприцеп для легкового авто

Погода в Лиде - сегодня

Время (UTC), дата Ветер
(°,м/с) 
Видим.   Явления Облачность Т
(°С)
Тd
(°С)
f(%) Тe
(°С)
Pmin
(гПа)
dP
(гПа)
Po
(мм)
O2
(г/м3)
Тmin Tmax R s Состояние
почвы
18 25.05.17 350 (С) 13000 м    6/0 средняя, верхняя 
[Ac trans|Ci fib]
+17.2 +6.7 50 +18  1014.3  0.3  747  282    +20.7       
21 25.05.17 320 (СЗ) 11000 м    3/0 средняя 
[Ac trans]
+12.9 +7.8 71 +14  1015.3  0.7  747  286           
00 26.05.17 340 (С) 10 км    ясно 
+10.7 +7.6 81 +12  1015.5  0.1  747  289           
03 26.05.17 340 (С) 10 км    8/0 средняя, верхняя 
[Ac trans|Ci fib]
+9.3 +7 86 +9  1015.8  0.1  748  290           
06 26.05.17 290 (З) 12000 м    9/0 средняя, верхняя 
[Ac trans|Ci fib]
+13.2 +8.1 71 +14  1015.5  748  286  +9.2         
09 26.05.17 300 (СЗ) 12000 м    8/3 600 м средняя, верхняя 
[Cu med, cong|Ac trans|Ci fib]
+14.8 +7.8 63 +15  1015.9  0.5  748  285           
12 26.05.17 330 (СЗ) 10 км  слаб. ливневой дождь  10/6 630 м кучево-дожд., средняя 
[Cb calv|Ac As]
+13.2 +10.5 84 +16  1016.4  0.4  748  286      0.0     
21 26.05.17 340 (С) 10 км    9/0 средняя 
[Ac trans]
+13.2 +7.3 67 +14  1018.1  1.5  749  287           
00 27.05.17 340 (С) 10 км    6/0 средняя 
[Ac trans]
+11.6 +6.2 69 +12  1019.2  0.9  750  289           
09 27.05.17 340 (С) 15000 м    8/3 1000 м верхняя 
[Cu hum|Ci fib]
+17.1 +5 45 +18  1021.9  0.7  752  285           
12 27.05.17 290 (З) 15000 м    9/4 1000 м верхняя 
[Cu hum|Ci fib]
+19.8 +3.6 34 +21  1021.5  -0.3  752  282           
15 27.05.17 320 (СЗ) 15000 м    9/0 верхняя 
[Ci fib]
+20.9 +3.6 32 +21  1020.9  -0.5  752  281           
18 27.05.17 340 (С) 15000 м    8/0 средняя, верхняя 
[Ac trans|Ci fib]
+18.4 +7.1 48 +19  1021.6  0.6  752  283    +21.3       
21 27.05.17 260 (З) 10 км    3/0 верхняя 
[Ci fib]
+12.1 +8.2 77 +13  1022.6  0.6  753  289           
00 28.05.17 тихо ()   10 км    4/0 средняя, верхняя 
[Ac trans|Ci fib]
+9.9 +7.6 86 +10  1022.8  753  291           
09 28.05.17 300 (СЗ) 15000 м    3/0 верхняя 
[Ci fib]
+22.3 +9.5 44 +23  1020.6  -0.7  752  278           
12 28.05.17 320 (СЗ) 15000 м    3/1 1000 м верхняя 
[Cu hum|Ci fib]
+26 +8.2 32 +26  1019.4  -1  751  275           
15 28.05.17 250 (З) 15000 м    6/4 1000 м верхняя 
[Cu hum|Ci fib]
+26.6 +8.6 32 +27  1018.1  -1.3  750  274           
18 28.05.17 240 (ЮЗ) 15000 м    3/0 средняя 
[Ac trans]
+24.8 +10.4 40 +27  1016.9  -1.2  749  275    +27.7       
21 28.05.17 240 (ЮЗ) 13000 м    3/0 верхняя 
[Ci fib]
+20.6 +10.3 52 +22  1016.8  -0.4  749  279           
00 29.05.17 210 (ЮЗ) 12000 м    4/0 верхняя 
[Ci fib]
+18.2 +9.5 57 +20  1015.4  -1.5  748  281           
09 29.05.17 240 (ЮЗ) 13000 м    6/0 средняя 
[Ac trans]
+22.4 +12.2 52 +27  1009.8  -1.3  744  275           
12 29.05.17 270 (З) 5-10{11}  15000 м    8/5 600 м кучево-дожд., средняя, верхняя 
[Cb calv|Ac trans|Ci fib]
+26.2 +10.5 37 +28  1008.2  -1.3  743  271           
15 29.05.17 320 (СЗ) 4{10}  15000 м    8/4 1000 м средняя 
[Cu med, cong|Ac trans]
+25 +13.2 48 +31  1007.6  -0.7  742  271           
18 29.05.17 310 (СЗ) 3{11}  13000 м    8/0 верхняя 
[Ci fib]
+19.8 +11.7 60 +25  1009.2  1.3  743  277    +26.7       
Время (UTC), дата Ветер
(°,м/с) 
Видим.   Явления Облачность Т
(°С)
Тd
(°С)
f(%) Тe
(°С)
Pmin
(гПа)
dP
(гПа)
Po
(мм)
O2
(г/м3)
Тmin Tmax R s Состояние
почвы

Для получения пояснительной информации подведите курсор к названию столбца.

ПОГОДА в Лиде - архив

Всё, что Вы хотите узнать о погоде в Лиде - удобно и подробно!

Выберите нужную дату (начиная с 1 января 2015* года) и нажмите кнопку "Найти".
Будут отображены архивные сводки погоды по пункту Лида, начиная с указанной даты.


Отображать данные в формате CSV (для использования в таблицах Excel)


Внимание! Наш архив погоды предназначен исключительно для личного некоммерческого использования в познавательных целях. Если Вам необходимы официальные справки о состоянии погоды (для производственных, юридических, коммерческих и т.п. целей), обращайтесь в органы Росгидромета.

*Примечание: данная дата относится к архиву по метеостанциям СССР (Россия, СНГ, Балтия).
Архив по метеостанциям Зарубежной Европы и Азии (кроме Китая) хранится 10 дней, по другим регионам земного шара (Китай, Африка, Америка, Австралия, Океания) - 1 день.

Лида - район местоположения метеостанции


Название, широта, долгота, высота метеостанции:
Лида 53.9°ш. 25.3°д. 157 м над ур. моря [Беларусь]

Дополнительная информация

В oтличие oт бoльшинства пoгoдных сайтoв мы публикуем пoдрoбную метеoинфoрмацию в детальнoм прoфессиoнальнoм фoрмате.

Характеристики температуры и влажнoсти вoздуха измеряются на высoте 2 м в тени вдали oт зданий и деревьев.
Скoрoсть ветра измеряется на высoте 10 м (на урoвне рoста челoвека скoрoсть ветра ниже в 1.5-2 раза). Если метеoстанция нахoдится в гoрoде или в лесу, тo скoрoсть ветра занижена на 2-4 м/с пo сравнению с oткрытым местoм. Скoрoсть ветра над акватoриями крупных рек и oзёр, а также на вершинах хoлмoв на 2-5 м/с выше, чем в oбычных услoвиях.
Атмoсфернoе давление в разных тoчках местнoсти мoжет значительнo oтличаться oт давления на метеoстанции, в зависимoсти oт услoвий рельефа (при пoдъёме на 10 м давление пoнижается примернo на 1 мм рт.ст.).